Wink, TX

12:17 AM CDT on September 25, 2016 (GMT -0500)
Winkler County

Weather History for KINK - February, 2013

Change the Weather History Date:

Tuesday, February 12, 2013

  Actual Average Record
Temperature  
Mean Temperature 45 °F -  
Max Temperature 55 °F 65 °F 86 °F (1962)
Min Temperature 32 °F 30 °F 16 °F (2011)
Degree Days  
Heating Degree Days 20    
Moisture  
Dew Point 29 °F    
Average Humidity 56    
Maximum Humidity 93    
Minimum Humidity 28    
Precipitation  
Precipitation 0.00 in - - ()
Sea Level Pressure  
Sea Level Pressure 29.94 in    
Wind  
Wind Speed 12 mph (NW)    
Max Wind Speed 24 mph    
Max Gust Speed 39 mph    
Visibility 10 miles    
Events      
Averages and records for this station are not official NWS values.
T = Trace of Precipitation, MM = Missing Value Source: NWS Daily Summary

Daily Weather History Graph

Daily Weather History Graph

Search for Another Location

Airport or City:

Trip Planner

Search our weather history database for the weather conditions in past years. The results will help you decide how hot, cold, wet, or windy it might be!

Date:

Astronomy

Feb. 12, 2013 Rise Set
Actual Time 7:37 AM CST 6:37 PM CST
Civil Twilight 7:12 AM CST 7:02 PM CST
Nautical Twilight 6:43 AM CST 7:30 PM CST
Astronomical Twilight 6:15 AM CST 7:59 PM CST
Moon 8:48 AM CST (2/12) 9:25 PM CST (2/12)
Length of Visible Light 11h 50m
Length of Day
11h 00m
Waxing Crescent, 7% of the Moon is Illuminated
Feb 12
Waxing Crescent
Feb 17
First Quarter
Feb 25
Full
Mar 4
Last Quarter
Mar 11
New

Hourly Weather History & Observations

Time (CST) Temp. Windchill Dew Point Humidity Pressure Visibility Wind Dir Wind Speed Gust Speed Precip Events Conditions
12:53 AM 46.9 °F - 39.9 °F 77% 29.78 in 10.0 mi ESE 16.1 mph - N/A   Clear
1:53 AM 45.0 °F 41.2 °F 39.9 °F 82% 29.79 in 10.0 mi ESE 6.9 mph - N/A   Clear
2:53 AM 44.1 °F - 39.9 °F 85% 29.80 in 10.0 mi Calm Calm - N/A   Partly Cloudy
3:53 AM 41.0 °F 39.0 °F 39.0 °F 93% 29.81 in 10.0 mi West 3.5 mph - N/A   Scattered Clouds
4:53 AM 39.0 °F 32.8 °F 37.0 °F 93% 29.83 in 10.0 mi WNW 9.2 mph - N/A   Clear
5:53 AM 42.1 °F 36.1 °F 39.0 °F 89% 29.86 in 10.0 mi WNW 10.4 mph - N/A   Partly Cloudy
6:53 AM 45.0 °F 41.2 °F 35.1 °F 68% 29.86 in 10.0 mi WSW 6.9 mph - N/A   Overcast
7:53 AM 44.1 °F 37.7 °F 34.0 °F 68% 29.88 in 10.0 mi WSW 12.7 mph - N/A   Overcast
8:53 AM 45.0 °F 39.3 °F 30.0 °F 56% 29.92 in 10.0 mi West 11.5 mph 19.6 mph N/A   Mostly Cloudy
9:53 AM 48.0 °F - 28.9 °F 48% 29.95 in 10.0 mi West 17.3 mph 24.2 mph N/A   Clear
10:53 AM 51.1 °F - 27.0 °F 39% 29.95 in 10.0 mi WNW 24.2 mph 34.5 mph N/A   Clear
11:53 AM 53.1 °F - 26.1 °F 35% 29.96 in 10.0 mi NW 23.0 mph 35.7 mph N/A   Partly Cloudy
12:53 PM 54.0 °F - 27.0 °F 35% 29.97 in 10.0 mi NW 21.9 mph 33.4 mph N/A   Partly Cloudy
1:53 PM 55.0 °F - 24.1 °F 30% 29.95 in 10.0 mi NW 21.9 mph 32.2 mph N/A   Mostly Cloudy
2:53 PM 55.0 °F - 21.9 °F 28% 29.95 in 10.0 mi NNW 23.0 mph 39.1 mph N/A   Partly Cloudy
3:53 PM 55.0 °F - 23.0 °F 29% 29.95 in 10.0 mi NNW 20.7 mph 29.9 mph N/A   Partly Cloudy
4:53 PM 54.0 °F - 24.1 °F 31% 29.98 in 10.0 mi North 17.3 mph 25.3 mph N/A   Partly Cloudy
5:53 PM 52.0 °F - 24.1 °F 34% 30.00 in 10.0 mi North 11.5 mph 21.9 mph N/A   Clear
6:53 PM 46.9 °F - 25.0 °F 42% 30.02 in 10.0 mi NE 6.9 mph - N/A   Clear
7:53 PM 44.1 °F 39.5 °F 25.0 °F 47% 30.05 in 10.0 mi ENE 8.1 mph - N/A   Clear
8:53 PM 39.9 °F - 25.0 °F 55% 30.07 in 10.0 mi Calm Calm - N/A   Clear
9:53 PM 39.0 °F 32.8 °F 25.0 °F 57% 30.08 in 10.0 mi NE 9.2 mph - N/A   Clear
10:53 PM 35.1 °F 30.1 °F 24.1 °F 64% 30.09 in 10.0 mi North 5.8 mph - N/A   Clear
11:53 PM 32.0 °F 26.4 °F 23.0 °F 69% 30.09 in 10.0 mi North 5.8 mph - N/A   Clear